• In United Kingdom
  • List of Countries
  • For 7 days
  • Water Temperature
  • Satellite Maps
  • Weather Map
  • Weather Widgets
  • user-avatar
    Login

    Hourly Weather Sylhet

    Today, 21 October, Sunday

    Time Temperature Precipitation Wind Pressure Humidity
    00:00 +25°C° 0 mm 1 mps 759 mmHg 76%
    01:00 +24°C° 0 mm 1 mps 758 mmHg 78%
    02:00 +24°C° 0 mm 1 mps 758 mmHg 79%
    03:00 +24°C° 0 mm 1 mps 758 mmHg 80%
    04:00 +23°C° 0 mm 1 mps 759 mmHg 81%
    05:00 +23°C° 0 mm 1 mps 759 mmHg 81%
    06:00 +22°C° 0 mm 1 mps 759 mmHg 82%
    07:00 +24°C° 0 mm 2 mps 759 mmHg 76%
    08:00 +26°C° 0 mm 2 mps 760 mmHg 70%
    09:00 +29°C° 0 mm 2 mps 760 mmHg 64%
    10:00 +30°C° 0 mm 2 mps 760 mmHg 59%
    11:00 +31°C° 0 mm 2 mps 759 mmHg 54%
    12:00 +33°C° 0 mm 1 mps 758 mmHg 49%
    13:00 +33°C° 0 mm 1 mps 758 mmHg 48%
    14:00 +33°C° 0 mm 1 mps 757 mmHg 47%
    15:00 +34°C° 0 mm 1 mps 756 mmHg 46%
    16:00 +32°C° 0 mm 1 mps 756 mmHg 51%
    17:00 +30°C° 0 mm 1 mps 756 mmHg 56%
    18:00 +28°C° 0 mm 1 mps 756 mmHg 61%
    19:00 +27°C° 0 mm 1 mps 757 mmHg 63%
    20:00 +26°C° 0 mm 1 mps 757 mmHg 65%
    21:00 +26°C° 0 mm 1 mps 758 mmHg 68%
    22:00 +25°C° 0 mm 1 mps 758 mmHg 70%
    23:00 +25°C° 0 mm 1 mps 758 mmHg 72%

    Tomorrow, 22 October, Monday

    Time Temperature Precipitation Wind Pressure Humidity
    00:00 +24°C° 0 mm 1 mps 758 mmHg 75%
    01:00 +24°C° 0 mm 1 mps 758 mmHg 77%
    02:00 +24°C° 0 mm 1 mps 758 mmHg 79%
    03:00 +23°C° 0 mm 1 mps 757 mmHg 81%
    04:00 +23°C° 0 mm 1 mps 757 mmHg 83%
    05:00 +23°C° 0 mm 1 mps 758 mmHg 85%
    06:00 +22°C° 0 mm 1 mps 758 mmHg 87%
    07:00 +24°C° 0 mm 1 mps 758 mmHg 80%
    08:00 +27°C° 0 mm 1 mps 759 mmHg 74%
    09:00 +29°C° 0 mm 2 mps 759 mmHg 68%
    10:00 +30°C° 0 mm 1 mps 759 mmHg 61%
    11:00 +32°C° 0 mm 1 mps 758 mmHg 54%
    12:00 +33°C° 0 mm 1 mps 757 mmHg 47%
    13:00 +33°C° 0 mm 1 mps 757 mmHg 46%
    14:00 +33°C° 0 mm 1 mps 756 mmHg 45%
    15:00 +33°C° 0 mm 1 mps 755 mmHg 44%
    16:00 +31°C° 0 mm 1 mps 755 mmHg 49%
    17:00 +29°C° 0 mm 1 mps 756 mmHg 54%
    18:00 +27°C° 0 mm 1 mps 756 mmHg 59%
    19:00 +27°C° 0 mm 1 mps 756 mmHg 62%
    20:00 +26°C° 0 mm 1 mps 757 mmHg 65%
    21:00 +25°C° 0 mm 1 mps 758 mmHg 68%
    22:00 +25°C° 0 mm 1 mps 758 mmHg 70%
    23:00 +24°C° 0 mm 1 mps 758 mmHg 72%

    Day after tomorrow, 23 October, Tuesday

    Time Temperature Precipitation Wind Pressure Humidity
    00:00 +24°C° 0 mm 1 mps 758 mmHg 74%
    01:00 +24°C° 0 mm 1 mps 757 mmHg 75%
    02:00 +23°C° 0 mm 1 mps 757 mmHg 76%
    03:00 +23°C° 0 mm 1 mps 757 mmHg 77%
    04:00 +22°C° 0 mm 1 mps 757 mmHg 78%
    05:00 +22°C° 0 mm 1 mps 757 mmHg 80%
    06:00 +22°C° 0 mm 1 mps 758 mmHg 81%
    07:00 +24°C° 0 mm 1 mps 758 mmHg 74%
    08:00 +26°C° 0 mm 1 mps 759 mmHg 68%
    09:00 +28°C° 0 mm 1 mps 759 mmHg 62%
    10:00 +30°C° 0 mm 1 mps 759 mmHg 56%
    11:00 +31°C° 0 mm 1 mps 758 mmHg 50%
    12:00 +33°C° 0 mm 1 mps 757 mmHg 44%
    13:00 +33°C° 0 mm 1 mps 756 mmHg 43%
    14:00 +33°C° 0 mm 1 mps 756 mmHg 42%
    15:00 +33°C° 0 mm 1 mps 755 mmHg 41%
    16:00 +31°C° 0 mm 1 mps 755 mmHg 46%
    17:00 +29°C° 0 mm 1 mps 756 mmHg 51%
    18:00 +27°C° 0 mm 1 mps 756 mmHg 55%
    19:00 +26°C° 0 mm 1 mps 757 mmHg 59%
    20:00 +25°C° 0 mm 1 mps 757 mmHg 63%
    21:00 +25°C° 0 mm 1 mps 758 mmHg 66%
    22:00 +24°C° 0 mm 1 mps 758 mmHg 68%
    23:00 +24°C° 0 mm 1 mps 758 mmHg 71%

    24 October, Wednesday

    Time Temperature Precipitation Wind Pressure Humidity
    00:00 +23°C° 0 mm 1 mps 758 mmHg 73%
    01:00 +23°C° 0 mm 1 mps 758 mmHg 74%
    02:00 +23°C° 0 mm 1 mps 757 mmHg 75%
    03:00 +22°C° 0 mm 1 mps 757 mmHg 76%
    04:00 +22°C° 0 mm 1 mps 757 mmHg 77%
    05:00 +21°C° 0 mm 1 mps 758 mmHg 78%
    06:00 +21°C° 0 mm 1 mps 758 mmHg 78%
    07:00 +23°C° 0 mm 1 mps 758 mmHg 72%
    08:00 +26°C° 0 mm 1 mps 759 mmHg 66%
    09:00 +28°C° 0 mm 1 mps 759 mmHg 60%
    10:00 +30°C° 0 mm 1 mps 758 mmHg 55%
    11:00 +31°C° 0 mm 1 mps 758 mmHg 50%
    12:00 +33°C° 0 mm 1 mps 757 mmHg 45%
    13:00 +33°C° 0 mm 1 mps 756 mmHg 44%
    14:00 +33°C° 0 mm 1 mps 756 mmHg 43%
    15:00 +33°C° 0 mm 1 mps 755 mmHg 42%
    16:00 +31°C° 0 mm 1 mps 755 mmHg 47%
    17:00 +29°C° 0 mm 1 mps 756 mmHg 51%
    18:00 +27°C° 0 mm 1 mps 756 mmHg 56%
    19:00 +26°C° 0 mm 1 mps 757 mmHg 58%
    20:00 +26°C° 0 mm 1 mps 757 mmHg 61%
    21:00 +25°C° 0 mm 1 mps 758 mmHg 64%
    22:00 +24°C° 0 mm 1 mps 758 mmHg 66%
    23:00 +24°C° 0 mm 1 mps 758 mmHg 69%

    25 October, Thursday

    Time Temperature Precipitation Wind Pressure Humidity
    00:00 +23°C° 0 mm 1 mps 758 mmHg 71%
    01:00 +23°C° 0 mm 1 mps 757 mmHg 72%
    02:00 +23°C° 0 mm 1 mps 757 mmHg 73%
    03:00 +22°C° 0 mm 1 mps 757 mmHg 74%
    04:00 +22°C° 0 mm 1 mps 758 mmHg 74%
    05:00 +22°C° 0 mm 1 mps 758 mmHg 75%
    06:00 +21°C° 0 mm 1 mps 758 mmHg 76%
    07:00 +24°C° 0 mm 1 mps 759 mmHg 70%
    08:00 +26°C° 0 mm 1 mps 759 mmHg 65%
    09:00 +28°C° 0 mm 1 mps 760 mmHg 59%
    10:00 +30°C° 0 mm 1 mps 759 mmHg 55%
    11:00 +31°C° 0 mm 1 mps 759 mmHg 51%
    12:00 +33°C° 0 mm 1 mps 758 mmHg 47%
    13:00 +33°C° 0 mm 1 mps 757 mmHg 47%
    14:00 +33°C° 0 mm 1 mps 757 mmHg 46%
    15:00 +33°C° 0 mm 1 mps 756 mmHg 45%
    16:00 +31°C° 0 mm 1 mps 756 mmHg 50%
    17:00 +29°C° 0 mm 1 mps 757 mmHg 55%
    18:00 +28°C° 0 mm 1 mps 757 mmHg 59%
    19:00 +27°C° 0 mm 1 mps 758 mmHg 61%
    20:00 +26°C° 0 mm 1 mps 759 mmHg 62%
    21:00 +25°C° 0 mm 1 mps 759 mmHg 63%
    22:00 +25°C° 0 mm 1 mps 759 mmHg 65%
    23:00 +24°C° 0 mm 1 mps 759 mmHg 66%

    26 October, Friday

    Time Temperature Precipitation Wind Pressure Humidity
    00:00 +24°C° 0 mm 1 mps 759 mmHg 67%
    01:00 +24°C° 0 mm 1 mps 759 mmHg 67%
    02:00 +23°C° 0 mm 1 mps 759 mmHg 68%
    03:00 +23°C° 0 mm 1 mps 759 mmHg 68%
    04:00 +23°C° 0 mm 1 mps 759 mmHg 70%
    05:00 +22°C° 0 mm 1 mps 760 mmHg 71%
    06:00 +22°C° 0 mm 1 mps 760 mmHg 73%
    07:00 +24°C° 0 mm 1 mps 760 mmHg 69%
    08:00 +27°C° 0 mm 1 mps 761 mmHg 64%
    09:00 +29°C° 0 mm 2 mps 761 mmHg 60%
    10:00 +30°C° 0 mm 1 mps 761 mmHg 55%
    11:00 +32°C° 0 mm 1 mps 760 mmHg 51%
    12:00 +33°C° 0 mm 1 mps 759 mmHg 47%
    13:00 +33°C° 0 mm 1 mps 759 mmHg 46%
    14:00 +34°C° 0 mm 1 mps 758 mmHg 45%
    15:00 +34°C° 0 mm 1 mps 757 mmHg 45%
    16:00 +32°C° 0 mm 1 mps 758 mmHg 50%
    17:00 +30°C° 0 mm 1 mps 758 mmHg 54%
    18:00 +28°C° 0 mm 1 mps 758 mmHg 59%
    19:00 +27°C° 0 mm 1 mps 759 mmHg 61%
    20:00 +27°C° 0 mm 1 mps 759 mmHg 62%
    21:00 +26°C° 0 mm 2 mps 760 mmHg 63%
    22:00 +25°C° 0 mm 1 mps 760 mmHg 64%
    23:00 +25°C° 0 mm 1 mps 760 mmHg 65%
    Show more